ISKON INTERNET d.d. za informatiku i telekomunikac Speed Test Log

Averages  Max Speed    
1 to 25 of 37569** for Host ISKON INTERNET d d
Time
Speed Size    User ConnectID  TestID   
10/14/19 3:32:27 am 7.65 Mbps 956 kB/s 7.3 MB1294300192482 HR 2YkFyBqCO 
10/13/19 10:30:44 pm 12.1 Mbps 1.51 MB/s 14 MB81767699834 HR OvhY5TmTK 
10/13/19 7:20:34 pm 12.83 Mbps 1.6 MB/s 14.4 MB1294299367785 HR aaAO8o~wv 
10/13/19 1:53:24 pm 1.13 Mbps 142 kB/s 1 MB1294299006562 HR vNhE-gFgk 
10/13/19 1:53:12 pm 14.06 Mbps 1.76 MB/s 13.2 MB1294299006562 HR hFDHvQJxx 
10/12/19 11:47:49 am 2.97 Mbps 372 kB/s 2.2 MB12942799044247 HR 8rlAu5_c2 
10/11/19 12:21:48 pm 750 kbps 94 kB/s 480 kB81767472958 HR wlBwxA91k 
10/10/19 4:00:09 pm 8.89 Mbps 1.11 MB/s 13 MB8176740109888 HR wrLiUc5DA 
10/9/19 8:56:26 pm 10.1 Mbps 1.26 MB/s 7.5 MB1294299465359 HR MnNW5d2h0 
10/9/19 8:54:59 am 3.89 Mbps 487 kB/s 2.3 MB12942795289873 KgQe8ukpn 
10/8/19 11:31:38 pm 10.51 Mbps 1.31 MB/s 15.4 MB12942787950871 HR y59WcOO2O 
10/8/19 10:24:10 pm 12.95 Mbps 1.62 MB/s 20.9 MB1294279360386 HR lB7dra-Ea 
10/8/19 10:23:15 pm 13.3 Mbps 1.66 MB/s 14.9 MB1294279360386 HR n~Lc540Df 
10/8/19 10:08:24 pm 672 kbps 84 kB/s 480 kB1294279360386 HR xkp_CSGyQ 
10/8/19 10:07:45 pm 633 kbps 79 kB/s 480 kB1294279360386 HR wG6MoaDBL 
10/8/19 6:42:04 pm 7.07 Mbps 884 kB/s 7.4 MB1294300288221 HR k7w1l~3fq 
10/8/19 3:18:28 pm 3.1 Mbps 387 kB/s 2.3 MB1294299101568 HR -HL4c2V-v 
10/7/19 9:18:36 pm 5.5 Mbps 687 kB/s 6.2 MB8176731937202 HR d~-ZAI80j 
10/7/19 9:18:23 pm 8.46 Mbps 1.06 MB/s 6.9 MB8176731937202 HR x_4tlsgnS 
10/7/19 8:51:10 pm 1.51 Mbps 188 kB/s 1.3 MB1294299466918 HR gboPpxsm4 
10/7/19 8:51:00 pm 525 kbps 66 kB/s 2.4 MB1294299466918 HR V6MEek8qa 
10/7/19 8:48:42 pm 1.06 Mbps 133 kB/s 1.3 MB1294299466918 HR bxgfcZrYb 
10/7/19 8:48:30 pm 18.87 Mbps 2.36 MB/s 14.8 MB1294299466918 HR 17sRjg~Ux 
10/5/19 12:48:41 pm 967 kbps 121 kB/s 1.1 MB12942787948670 HR UilP-TTs3 
10/5/19 12:48:28 pm 7.69 Mbps 961 kB/s 7.8 MB12942787948670 HR 1RFAO7078 
  
** Partial Results: The most recent results have been displayed. Results over 50 Mbps are highlighted.
Graphed results calculation
Displaying Internet Speed Test results for Host ISKON INTERNET d.d. za informatiku i telekomunikac

Minimum

Min 0.53 Mbps : 0.75 Mbps

Average [show Median]

Average 8.78 Mbps : 2.24 Mbps

Maximum

Max 18.87 Mbps : 5.5 Mbps

Minimum

Minimum: 0.53 Mbps : 0.75 Mbps

Average

Average: 8.78 Mbps : 2.24 Mbps [show Median]

Maximum

Maximum: 18.87 Mbps : 5.5 Mbps